Weather History for Alliance, NE

Change the Weather History Date:

Monday, February 4, 2013

  Actual Average Record
Temperature  
Mean Temperature 34 °F 25 °F  
Max Temperature 55 °F 39 °F 65 °F (1904)
Min Temperature 13 °F 11 °F -40 °F (1899)
Degree Days  
Heating Degree Days 31 40  
Month to date heating degree days 126 160  
Since 1 July heating degree days 4195 4505  
Cooling Degree Days 0 0  
Month to date cooling degree days 0 0  
Year to date cooling degree days 0 0  
Moisture  
Dew Point 15 °F    
Average Humidity 51    
Maximum Humidity 84    
Minimum Humidity 18    
Precipitation  
Precipitation 0.00 in 0.01 in 0.26 in (1945)
Month to date precipitation 0.00 0.05  
Year to date precipitation 0.22 0.23  
Sea Level Pressure  
Sea Level Pressure 29.92 in    
Wind  
Wind Speed 9 mph (West)    
Max Wind Speed 22 mph    
Max Gust Speed 29 mph    
Visibility 10 miles    
Events      
T = Trace of Precipitation, MM = Missing Value Source: NWS Daily Summary

Daily Weather History Graph

Daily Weather History Graph

Search for Another Location

Airport:

Trip Planner

Search our weather history database for the weather conditions in past years. The results will help you decide how hot, cold, wet, or windy it might be!

Date:

Astronomy

Feb. 04, 2013 Rise Set
Actual Time 7:00 AM MST 5:10 PM MST
Civil Twilight 6:31 AM MST 5:39 PM MST
Nautical Twilight 5:57 AM MST 6:12 PM MST
Astronomical Twilight 5:25 AM MST 6:45 PM MST
Moon 1:40 AM MST (2/4) 11:34 AM MST (2/4)
Length of Visible Light 11h 08m
Length of Day
10h 09m
Last Quarter, 36% of the Moon is Illuminated
Feb 4
Last Quarter
Feb 10
New
Feb 17
First Quarter
Feb 25
Full
Mar 4
Last Quarter

Hourly Weather History & Observations

Time (MST) Temp. Windchill Dew Point Humidity Pressure Visibility Wind Dir Wind Speed Gust Speed Precip Events Conditions
12:53 AM 24.1 °F 19.7 °F 17.1 °F 75% 29.96 in 10.0 mi West 3.5 mph - N/A   Clear
1:53 AM 19.0 °F 9.0 °F 14.0 °F 81% 29.97 in 10.0 mi West 8.1 mph - N/A   Clear
3:53 AM 19.0 °F 11.1 °F 14.0 °F 81% 29.97 in 10.0 mi West 5.8 mph - N/A   Clear
4:53 AM 15.1 °F 4.2 °F 10.9 °F 84% 29.99 in 10.0 mi West 8.1 mph - N/A   Clear
5:53 AM 16.0 °F 6.3 °F 10.9 °F 81% 30.01 in 10.0 mi West 6.9 mph - N/A   Clear
6:53 AM 17.1 °F 8.7 °F 12.0 °F 81% 29.98 in 10.0 mi West 5.8 mph - N/A   Clear
7:53 AM 21.0 °F - 16.0 °F 81% 29.96 in 10.0 mi Calm Calm - N/A   Clear
8:53 AM 28.9 °F 22.8 °F 21.0 °F 72% 29.96 in 10.0 mi WSW 5.8 mph - N/A   Clear
9:53 AM 34.0 °F 28.0 °F 19.9 °F 56% 29.95 in 10.0 mi West 6.9 mph - N/A   Partly Cloudy
10:53 AM 48.0 °F - 16.0 °F 28% 29.88 in 10.0 mi West 16.1 mph - N/A   Clear
11:53 AM 52.0 °F - 12.9 °F 21% 29.83 in 10.0 mi West 16.1 mph - N/A   Scattered Clouds
12:53 PM 54.0 °F - 10.9 °F 18% 29.82 in 10.0 mi West 19.6 mph 25.3 mph N/A   Clear
1:53 PM 53.1 °F - 12.0 °F 20% 29.82 in 10.0 mi NW 17.3 mph - N/A   Scattered Clouds
2:53 PM 52.0 °F - 12.9 °F 21% 29.82 in 10.0 mi NNW 17.3 mph 25.3 mph N/A   Scattered Clouds
3:53 PM 46.9 °F - 18.0 °F 32% 29.86 in 10.0 mi North 13.8 mph - N/A   Clear
4:53 PM 39.0 °F 32.8 °F 19.9 °F 46% 29.91 in 10.0 mi North 9.2 mph - N/A   Clear
5:53 PM 35.1 °F 32.2 °F 19.0 °F 52% 29.93 in 10.0 mi NW 3.5 mph - N/A   Clear
6:53 PM 30.0 °F 26.5 °F 18.0 °F 61% 29.95 in 10.0 mi WSW 3.5 mph - N/A   Clear
7:53 PM 24.1 °F 16.0 °F 17.1 °F 75% 29.96 in 10.0 mi West 6.9 mph - N/A   Clear
8:53 PM 21.9 °F 15.7 °F 16.0 °F 78% 29.95 in 10.0 mi West 4.6 mph - N/A   Clear
9:53 PM 19.0 °F 12.3 °F 14.0 °F 81% 29.95 in 10.0 mi West 4.6 mph - N/A   Clear
10:53 PM 21.0 °F 12.4 °F 15.1 °F 78% 29.91 in 10.0 mi West 6.9 mph - N/A   Clear
11:53 PM 23.0 °F 13.9 °F 17.1 °F 78% 29.89 in 10.0 mi West 8.1 mph - N/A   Clear